| time (UTC) | temp F | wind direction | speed knots | gust knots | rain 1hr in | rain 24hr in | rain mn in | humidity % | barometer mb |
| 20260509064539 | 52 | 239 | 0.0 | 3.5 | 0.00 | 0.23 | 0.00 | 99 | 979.2 |
| 20260509063035 | 52 | 241 | 0.0 | 4.3 | 0.00 | 0.23 | 0.00 | 99 | 979.3 |
| 20260509061540 | 52 | 238 | 0.0 | 2.6 | 0.00 | 0.23 | 0.00 | 98 | 979.2 |
| 20260509060037 | 51 | 243 | 0.0 | 1.7 | 0.00 | 0.23 | 0.00 | 98 | 979.6 |
| 20260509054530 | 51 | 184 | 0.0 | 0.9 | 0.00 | 0.23 | 0.00 | 98 | 979.6 |
| 20260509053042 | 51 | 229 | 0.0 | 1.7 | 0.00 | 0.23 | 0.00 | 98 | 979.6 |
| 20260509051528 | 52 | 244 | 0.0 | 0.9 | 0.00 | 0.23 | 0.00 | 98 | 979.5 |
| 20260509050029 | 52 | 228 | 0.0 | 1.7 | 0.00 | 0.23 | 0.00 | 98 | 979.5 |
| 20260509044525 | 52 | 223 | 0.0 | 0.9 | 0.00 | 0.23 | 0.00 | 97 | 979.5 |
| 20260509043023 | 52 | 222 | 0.0 | 0.9 | 0.00 | 0.23 | 0.00 | 97 | 979.6 |
| 20260509041534 | 53 | 222 | 0.0 | 2.6 | 0.00 | 0.23 | 0.00 | 97 | 979.6 |
| 20260509040020 | 53 | 225 | 0.0 | 0.9 | 0.00 | 0.23 | 0.00 | 97 | 979.8 |
| 20260509034520 | 53 | 225 | 0.0 | 0.9 | 0.00 | 0.23 | 0.23 | 97 | 979.8 |
| 20260509033019 | 53 | 225 | 0.0 | 0.0 | 0.00 | 0.23 | 0.23 | 97 | 979.9 |
| 20260509031518 | 53 | 225 | 0.0 | 0.9 | 0.00 | 0.23 | 0.23 | 96 | 979.9 |
| 20260509030018 | 54 | 225 | 0.0 | 3.5 | 0.00 | 0.23 | 0.23 | 96 | 979.9 |
| 20260509024517 | 54 | 252 | 0.0 | 1.7 | 0.00 | 0.23 | 0.23 | 96 | 980.0 |
| 20260509023018 | 54 | 240 | 0.0 | 2.6 | 0.00 | 0.23 | 0.23 | 96 | 980.0 |
| 20260509021517 | 54 | 242 | 0.9 | 3.5 | 0.00 | 0.23 | 0.23 | 96 | 980.0 |
| 20260509020015 | 54 | 232 | 0.0 | 4.3 | 0.00 | 0.23 | 0.23 | 95 | 979.9 |
| 20260509014514 | 55 | 217 | 1.7 | 5.2 | 0.00 | 0.23 | 0.23 | 95 | 979.8 |
| 20260509013014 | 54 | 238 | 1.7 | 4.3 | 0.00 | 0.23 | 0.23 | 95 | 980.0 |
| 20260509011516 | 54 | 224 | 0.0 | 4.3 | 0.00 | 0.23 | 0.23 | 95 | 980.0 |
| 20260509010033 | 55 | 212 | 0.9 | 2.6 | 0.00 | 0.23 | 0.23 | 94 | 979.9 |
| 20260509004523 | 55 | 224 | 0.0 | 1.7 | 0.00 | 0.23 | 0.23 | 93 | 979.9 |
| 20260509003011 | 55 | 238 | 0.9 | 3.5 | 0.00 | 0.23 | 0.23 | 93 | 980.0 |
| 20260509001514 | 55 | 224 | 0.0 | 2.6 | 0.00 | 0.23 | 0.23 | 92 | 980.1 |
| 20260509000010 | 56 | 203 | 0.9 | 4.3 | 0.00 | 0.23 | 0.23 | 91 | 980.2 |
| 20260508234520 | 56 | 238 | 1.7 | 4.3 | 0.00 | 0.23 | 0.23 | 91 | 980.1 |
| 20260508233013 | 56 | 244 | 1.7 | 4.3 | 0.00 | 0.23 | 0.23 | 91 | 980.2 |
| 20260508231509 | 56 | 148 | 0.0 | 3.5 | 0.00 | 0.23 | 0.23 | 92 | 980.3 |
| 20260508230006 | 56 | 227 | 0.0 | 4.3 | 0.00 | 0.23 | 0.23 | 92 | 980.2 |
| 20260508224506 | 57 | 264 | 0.0 | 4.3 | 0.00 | 0.23 | 0.23 | 91 | 980.2 |
| 20260508223006 | 57 | 218 | 1.7 | 5.2 | 0.00 | 0.23 | 0.23 | 91 | 980.2 |
| 20260508221509 | 57 | 240 | 3.5 | 7.8 | 0.00 | 0.23 | 0.23 | 92 | 980.3 |
| 20260508220003 | 57 | 237 | 1.7 | 6.1 | 0.00 | 0.26 | 0.23 | 93 | 980.5 |
| 20260508214502 | 56 | 229 | 0.9 | 4.3 | 0.00 | 0.26 | 0.23 | 94 | 980.3 |
| 20260508213005 | 56 | 219 | 0.0 | 5.2 | 0.00 | 0.26 | 0.23 | 94 | 980.1 |
| 20260508211559 | 56 | 224 | 0.9 | 6.1 | 0.01 | 0.26 | 0.23 | 93 | 980.4 |
| 20260508210106 | 56 | 233 | 1.7 | 7.0 | 0.02 | 0.26 | 0.23 | 93 | 980.6 |
| 20260508204556 | 56 | 129 | 3.5 | 8.7 | 0.06 | 0.26 | 0.23 | 93 | 980.8 |
| 20260508203102 | 56 | 224 | 0.9 | 5.2 | 0.07 | 0.26 | 0.23 | 94 | 980.8 |
| 20260508201554 | 56 | 231 | 0.0 | 3.5 | 0.08 | 0.25 | 0.22 | 94 | 981.2 |
| 20260508200057 | 56 | 236 | 1.7 | 4.3 | 0.08 | 0.23 | 0.20 | 94 | 981.3 |
| 20260508194551 | 56 | 235 | 2.6 | 5.2 | 0.07 | 0.20 | 0.17 | 94 | 981.5 |
| 20260508193053 | 56 | 260 | 2.6 | 6.1 | 0.09 | 0.19 | 0.16 | 94 | 981.5 |
| 20260508191554 | 56 | 263 | 5.2 | 8.7 | 0.09 | 0.17 | 0.14 | 93 | 981.8 |
| 20260508190050 | 57 | 306 | 4.3 | 8.7 | 0.08 | 0.15 | 0.12 | 89 | 981.7 |
| 20260508184546 | 58 | 270 | 2.6 | 6.1 | 0.06 | 0.13 | 0.10 | 88 | 981.8 |
| 20260508183045 | 59 | 243 | 6.1 | 10.4 | 0.03 | 0.10 | 0.07 | 82 | 981.6 |
| 20260508181544 | 60 | 258 | 7.0 | 11.3 | 0.01 | 0.08 | 0.05 | 78 | 981.6 |
| 20260508180042 | 63 | 261 | 9.6 | 14.8 | 0.00 | 0.07 | 0.04 | 70 | 981.6 |
| 20260508174542 | 64 | 247 | 11.3 | 18.2 | 0.00 | 0.07 | 0.04 | 67 | 981.8 |
| 20260508173040 | 65 | 220 | 8.7 | 16.5 | 0.00 | 0.07 | 0.04 | 64 | 981.8 |
| 20260508171537 | 64 | 126 | 2.6 | 7.0 | 0.00 | 0.07 | 0.04 | 68 | 981.9 |
| 20260508170033 | 63 | 183 | 1.7 | 6.1 | 0.00 | 0.07 | 0.04 | 71 | 982.3 |
| 20260508164534 | 60 | 250 | 0.9 | 5.2 | 0.00 | 0.07 | 0.04 | 72 | 982.7 |
| 20260508163026 | 59 | 222 | 2.6 | 7.0 | 0.00 | 0.07 | 0.04 | 70 | 983.2 |
| 20260508161524 | 59 | 242 | 5.2 | 8.7 | 0.00 | 0.07 | 0.04 | 71 | 983.4 |
| 20260508160030 | 60 | 245 | 3.5 | 7.8 | 0.00 | 0.07 | 0.04 | 70 | 983.4 |
| 20260508154519 | 59 | 228 | 2.6 | 8.7 | 0.00 | 0.07 | 0.04 | 72 | 983.5 |
| 20260508153019 | 59 | 259 | 5.2 | 9.6 | 0.00 | 0.07 | 0.04 | 70 | 983.5 |
| 20260508151517 | 59 | 226 | 5.2 | 10.4 | 0.00 | 0.07 | 0.04 | 69 | 983.5 |
| 20260508150013 | 57 | 243 | 2.6 | 8.7 | 0.00 | 0.07 | 0.04 | 72 | 983.8 |
| 20260508144509 | 56 | 228 | 4.3 | 9.6 | 0.00 | 0.07 | 0.04 | 72 | 983.9 |
| 20260508143007 | 56 | 219 | 4.3 | 7.0 | 0.00 | 0.07 | 0.04 | 75 | 984.0 |
| 20260508141504 | 55 | 222 | 5.2 | 10.4 | 0.00 | 0.07 | 0.04 | 75 | 983.9 |
| 20260508134600 | 52 | 226 | 1.7 | 7.8 | 0.00 | 0.07 | 0.04 | 80 | 984.3 |
| 20260508133107 | 52 | 241 | 3.5 | 7.0 | 0.00 | 0.07 | 0.04 | 79 | 984.3 |
| 20260508131601 | 53 | 238 | 2.6 | 7.8 | 0.00 | 0.07 | 0.04 | 77 | 984.2 |
| 20260508130110 | 53 | 210 | 0.9 | 3.5 | 0.00 | 0.07 | 0.04 | 79 | 983.9 |
| 20260508124554 | 52 | 181 | 0.9 | 3.5 | 0.00 | 0.07 | 0.04 | 83 | 984.1 |
| 20260508123054 | 52 | 229 | 0.0 | 3.5 | 0.00 | 0.07 | 0.04 | 82 | 984.3 |
| 20260508121558 | 0 | 0.0 | 0.0 | 0.00 | 0.07 | 0.04 | 984.2 | ||
| 20260508120042 | 0 | 0.0 | 0.0 | 0.01 | 0.07 | 0.04 | 983.9 | ||
| 20260508114538 | 0 | 0.0 | 0.0 | 0.01 | 0.07 | 0.04 | 984.1 | ||
| 20260508113041 | 48 | 229 | 0.0 | 0.0 | 0.02 | 0.07 | 0.04 | 89 | 983.9 |
| 20260508111534 | 48 | 229 | 0.0 | 1.7 | 0.03 | 0.07 | 0.04 | 89 | 983.9 |
| 20260508110033 | 48 | 231 | 2.6 | 6.1 | 0.02 | 0.06 | 0.03 | 88 | 983.8 |
| 20260508104557 | 48 | 224 | 0.9 | 4.3 | 0.02 | 0.06 | 0.03 | 89 | 983.7 |
| 20260508103041 | 49 | 259 | 2.6 | 7.0 | 0.01 | 0.05 | 0.02 | 87 | 983.8 |
| 20260508101531 | 49 | 240 | 6.1 | 10.4 | 0.01 | 0.04 | 0.01 | 84 | 983.7 |
| 20260508100033 | 49 | 238 | 3.5 | 7.8 | 0.01 | 0.04 | 0.01 | 84 | 983.8 |
| 20260508094530 | 49 | 238 | 2.6 | 9.6 | 0.01 | 0.04 | 0.01 | 83 | 983.6 |
| 20260508093028 | 49 | 233 | 4.3 | 10.4 | 0.01 | 0.04 | 0.01 | 85 | 983.6 |
| 20260508091527 | 50 | 196 | 6.1 | 13.0 | 0.00 | 0.03 | 0.00 | 83 | 983.9 |
| 20260508090027 | 49 | 230 | 8.7 | 13.0 | 0.00 | 0.03 | 0.00 | 83 | 984.1 |
| 20260508084525 | 51 | 240 | 7.0 | 10.4 | 0.00 | 0.03 | 0.00 | 80 | 983.9 |
| 20260508083021 | 51 | 255 | 5.2 | 10.4 | 0.00 | 0.03 | 0.00 | 78 | 983.7 |
| 20260508081520 | 50 | 231 | 5.2 | 8.7 | 0.00 | 0.03 | 0.00 | 80 | 983.6 |
| 20260508080019 | 50 | 221 | 3.5 | 8.7 | 0.00 | 0.03 | 0.00 | 82 | 983.4 |
| 20260508074517 | 50 | 231 | 3.5 | 10.4 | 0.00 | 0.03 | 0.00 | 81 | 983.5 |
| 20260508073018 | 51 | 261 | 6.1 | 10.4 | 0.00 | 0.03 | 0.00 | 79 | 983.8 |
| 20260508071514 | 50 | 226 | 5.2 | 9.6 | 0.00 | 0.03 | 0.00 | 78 | 983.9 |
| 20260508070019 | 50 | 247 | 3.5 | 7.8 | 0.00 | 0.03 | 0.00 | 78 | 984.1 |